Weather History for KOEB - November, 2011

Change the Weather History Date:

Tuesday, November 8, 2011

  Actual Average (KJYM) Record (KJYM)
Temperature  
Mean Temperature 56 °F -  
Max Temperature 62 °F 48 °F 64 °F (1975)
Min Temperature 51 °F 31 °F 7 °F (1991)
Degree Days  
Heating Degree Days 8    
Growing Degree Days 6 (Base 50)    
Moisture  
Dew Point 51 °F    
Average Humidity 80    
Maximum Humidity 100    
Minimum Humidity 63    
Precipitation  
Precipitation 0.00 in - - ()
Sea Level Pressure  
Sea Level Pressure 30.06 in    
Wind  
Wind Speed 5 mph (SSE)    
Max Wind Speed 12 mph    
Max Gust Speed 21 mph    
Visibility 7 miles    
Events Rain    
Averages and records for this station are not official NWS values.
T = Trace of Precipitation, MM = Missing Value Source: NWS Daily Summary

Daily Weather History Graph

Daily Weather History Graph

Search for Another Location

Airport or City:

Trip Planner

Search our weather history database for the weather conditions in past years. The results will help you decide how hot, cold, wet, or windy it might be!

Date:

Astronomy

Nov. 08, 2011 Rise Set
Actual Time 7:20 AM EST 5:26 PM EST
Civil Twilight 6:51 AM EST 5:55 PM EST
Nautical Twilight 6:18 AM EST 6:29 PM EST
Astronomical Twilight 5:45 AM EST 7:01 PM EST
Moon 4:06 PM EST (11/8) 5:18 AM EST (11/8)
Length of Visible Light 11h 04m
Length of Day
10h 05m
Waxing Gibbous, 96% of the Moon is Illuminated
Nov 8
Waxing Gibbous
Nov 10
Full
Nov 18
Last Quarter
Nov 25
New
Dec 2
First Quarter

Hourly Weather History & Observations

Time (EST) Temp. Dew Point Humidity Pressure Visibility Wind Dir Wind Speed Gust Speed Precip Events Conditions
12:14 AM 51.8 °F 50.0 °F 94% 30.19 in 2.0 mi Calm Calm - N/A   Overcast
12:35 AM 51.8 °F 50.0 °F 94% 30.18 in 2.5 mi Calm Calm - N/A   Overcast
12:54 AM 51.8 °F 50.0 °F 94% 30.18 in 2.0 mi East 3.5 mph - N/A   Light Drizzle
1:14 AM 51.8 °F 50.0 °F 94% 30.17 in 1.8 mi East 3.5 mph - N/A   Drizzle
1:35 AM 51.8 °F 50.0 °F 94% 30.16 in 2.0 mi East 4.6 mph - N/A   Drizzle
1:54 AM 51.8 °F 50.0 °F 94% 30.16 in 1.5 mi ESE 3.5 mph - N/A   Drizzle
2:15 AM 51.8 °F 50.0 °F 94% 30.15 in 2.0 mi East 4.6 mph - N/A Rain Rain
2:35 AM 51.8 °F 50.0 °F 94% 30.15 in 4.0 mi East 4.6 mph - N/A   Light Drizzle
2:54 AM 51.8 °F 50.0 °F 94% 30.15 in 4.0 mi ESE 3.5 mph - N/A   Overcast
3:15 AM 51.8 °F 51.8 °F 100% 30.15 in 3.0 mi Calm Calm - N/A   Drizzle
3:35 AM 51.8 °F 51.8 °F 100% 30.14 in 3.0 mi ESE 3.5 mph - N/A Rain Rain
4:15 AM 51.8 °F 51.8 °F 100% 30.13 in 4.0 mi ESE 5.8 mph - N/A   Overcast
4:35 AM 51.8 °F 51.8 °F 100% 30.13 in 7.0 mi ESE 4.6 mph - N/A   Overcast
4:54 AM 51.8 °F 51.8 °F 100% 30.12 in 5.0 mi ESE 5.8 mph - N/A   Overcast
5:15 AM 51.8 °F 51.8 °F 100% 30.12 in 4.0 mi ESE 5.8 mph - N/A   Overcast
5:34 AM 51.8 °F 51.8 °F 100% 30.12 in 3.0 mi ESE 6.9 mph - N/A   Overcast
5:54 AM 51.8 °F 51.8 °F 100% 30.11 in 3.0 mi ESE 6.9 mph - N/A   Drizzle
6:14 AM 51.8 °F 51.8 °F 100% 30.12 in 3.0 mi SE 5.8 mph - N/A   Overcast
6:34 AM 51.8 °F 51.8 °F 100% 30.11 in 4.0 mi SE 6.9 mph - N/A   Overcast
6:55 AM 51.8 °F 51.8 °F 100% 30.11 in 3.0 mi ESE 5.8 mph - N/A   Overcast
7:15 AM 51.8 °F 51.8 °F 100% 30.10 in 3.0 mi ESE 6.9 mph - N/A   Overcast
7:34 AM 51.8 °F 51.8 °F 100% 30.10 in 2.5 mi SE 6.9 mph - N/A   Overcast
7:55 AM 51.8 °F 51.8 °F 100% 30.10 in 2.5 mi SE 5.8 mph - N/A   Overcast
8:14 AM 51.8 °F 51.8 °F 100% 30.09 in 2.5 mi SE 5.8 mph - N/A   Overcast
8:34 AM 53.6 °F 51.8 °F 94% 30.09 in 3.0 mi SSE 5.8 mph - N/A   Overcast
8:55 AM 53.6 °F 51.8 °F 94% 30.09 in 4.0 mi SSE 8.1 mph - N/A   Overcast
9:14 AM 53.6 °F 51.8 °F 94% 30.09 in 4.0 mi South 5.8 mph - N/A   Overcast
9:35 AM 55.4 °F 51.8 °F 88% 30.09 in 5.0 mi South 5.8 mph - N/A   Overcast
9:55 AM 55.4 °F 51.8 °F 88% 30.08 in 7.0 mi South 5.8 mph - N/A   Overcast
10:14 AM 57.2 °F 51.8 °F 82% 30.08 in 7.0 mi South 5.8 mph - N/A   Mostly Cloudy
10:35 AM 59.0 °F 51.8 °F 77% 30.08 in 10.0 mi South 5.8 mph - N/A   Mostly Cloudy
10:55 AM 59.0 °F 51.8 °F 77% 30.08 in 10.0 mi South 5.8 mph - N/A   Mostly Cloudy
11:14 AM 60.8 °F 51.8 °F 72% 30.08 in 10.0 mi South 5.8 mph - N/A   Mostly Cloudy
11:35 AM 62.6 °F 53.6 °F 72% 30.07 in 10.0 mi SSW 9.2 mph - N/A   Scattered Clouds
11:54 AM 62.6 °F 51.8 °F 68% 30.06 in 10.0 mi South 6.9 mph - N/A   Mostly Cloudy
12:14 PM 60.8 °F 51.8 °F 72% 30.05 in 10.0 mi South 5.8 mph - N/A   Overcast
12:35 PM 60.8 °F 50.0 °F 68% 30.03 in 10.0 mi South 8.1 mph - N/A   Scattered Clouds
12:54 PM 62.6 °F 51.8 °F 68% 30.03 in 10.0 mi South 9.2 mph - N/A   Scattered Clouds
1:14 PM 62.6 °F 50.0 °F 63% 30.01 in 10.0 mi SSW 8.1 mph - N/A   Overcast
1:35 PM 62.6 °F 50.0 °F 63% 30.01 in 10.0 mi South 10.4 mph - N/A   Overcast
1:54 PM 62.6 °F 50.0 °F 63% 29.99 in 10.0 mi SSE 10.4 mph - N/A   Overcast
2:15 PM 62.6 °F 50.0 °F 63% 29.99 in 10.0 mi South 6.9 mph 16.1 mph N/A   Overcast
2:35 PM 62.6 °F 50.0 °F 63% 29.98 in 10.0 mi South 9.2 mph - N/A   Overcast
3:15 PM 62.6 °F 50.0 °F 63% 29.96 in 10.0 mi South 10.4 mph 20.7 mph N/A   Overcast
3:34 PM 62.6 °F 50.0 °F 63% 29.96 in 10.0 mi South 10.4 mph 19.6 mph N/A   Overcast
3:54 PM 62.6 °F 50.0 °F 63% 29.96 in 10.0 mi South 10.4 mph 17.3 mph N/A   Overcast
4:15 PM 62.6 °F 50.0 °F 63% 29.96 in 10.0 mi SSE 9.2 mph 16.1 mph N/A   Overcast
4:35 PM 62.6 °F 50.0 °F 63% 29.97 in 10.0 mi South 8.1 mph - N/A   Overcast
4:54 PM 62.6 °F 50.0 °F 63% 29.97 in 10.0 mi South 8.1 mph 16.1 mph N/A   Overcast
5:15 PM 62.6 °F 50.0 °F 63% 29.97 in 10.0 mi SSW 8.1 mph - N/A   Overcast
5:34 PM 62.6 °F 50.0 °F 63% 29.97 in 10.0 mi South 9.2 mph - N/A   Overcast
5:54 PM 62.6 °F 50.0 °F 63% 29.97 in 10.0 mi South 6.9 mph - N/A   Overcast
6:15 PM 62.6 °F 50.0 °F 63% 29.98 in 10.0 mi South 6.9 mph - N/A   Overcast
6:34 PM 62.6 °F 50.0 °F 63% 29.98 in 10.0 mi South 5.8 mph - N/A   Overcast
6:54 PM 62.6 °F 50.0 °F 63% 29.98 in 10.0 mi South 6.9 mph - N/A   Overcast
7:15 PM 62.6 °F 50.0 °F 63% 29.98 in 10.0 mi South 9.2 mph - N/A   Overcast
7:34 PM 62.6 °F 50.0 °F 63% 29.98 in 10.0 mi South 8.1 mph - N/A   Overcast
7:55 PM 62.6 °F 50.0 °F 63% 29.98 in 10.0 mi South 8.1 mph - N/A   Overcast
8:15 PM 62.6 °F 50.0 °F 63% 29.97 in 10.0 mi South 9.2 mph - N/A   Overcast
8:34 PM 62.6 °F 50.0 °F 63% 29.97 in 10.0 mi South 8.1 mph - N/A   Overcast
8:55 PM 62.6 °F 50.0 °F 63% 29.97 in 10.0 mi South 8.1 mph - N/A   Overcast
9:14 PM 62.6 °F 51.8 °F 68% 29.97 in 10.0 mi South 11.5 mph 16.1 mph N/A   Overcast
9:34 PM 60.8 °F 51.8 °F 72% 29.97 in 10.0 mi SSW 11.5 mph 18.4 mph N/A Rain Light Rain
9:55 PM 60.8 °F 53.6 °F 77% 29.96 in 10.0 mi SSW 10.4 mph 16.1 mph N/A   Overcast
10:14 PM 60.8 °F 53.6 °F 77% 29.96 in 10.0 mi SSW 5.8 mph - N/A   Overcast
10:34 PM 60.8 °F 53.6 °F 77% 29.96 in 10.0 mi SW 6.9 mph - N/A   Overcast
10:55 PM 60.8 °F 53.6 °F 77% 29.96 in 10.0 mi SW 4.6 mph - N/A   Overcast
11:15 PM 59.0 °F 53.6 °F 82% 29.96 in 10.0 mi SSW 3.5 mph - N/A   Overcast
11:34 PM 59.0 °F 53.6 °F 82% 29.96 in 10.0 mi SSW 3.5 mph - N/A   Overcast
11:55 PM 60.8 °F 53.6 °F 77% 29.95 in 10.0 mi Calm Calm - N/A   Overcast